DW7287 Weather Reports


time (UTC)temp
C
wind
direction
speed
KPH
gust
KPH
rain 1hr
cm
rain 24hr
cm
rain mn
cm
humidity
%
barometer
mb
20260507031552 11 360 4.8 14.5 0.00 1.93 1.88 88 1013.9
20260507030055 12 360 0.0 3.2 0.00 1.93 1.88 93 1013.8
20260507024556 12 0 0.0 3.2 0.00 1.93 1.88 93 1013.6
20260507023107 12 0 0.0 3.2 0.00 1.93 1.88 93 1013.8
20260507021556 12 0 0.0 3.2 0.00 1.93 1.88 93 1013.7
20260507014555 12 360 0.0 4.8 0.00 1.93 1.88 93 1013.1
20260507013054 12 360 0.0 1.6 0.00 1.93 1.88 93 1012.7
20260507011555 12 360 0.0 1.6 0.00 1.93 1.88 92 1012.9
20260507010055 12 0 0.0 1.6 0.00 1.93 1.88 92 1012.6
20260507004552 12 0 0.0 0.0 0.00 1.93 1.88 92 1012.7
20260507003106 12 0 0.0 1.6 0.00 1.93 1.88 92 1012.5
20260507001611 12 0 0.0 3.2 0.00 1.93 1.88 91 1012.4
20260507000056 12 0 0.0 1.6 0.00 1.93 1.88 91 1012.7
20260506234555 12 360 0.0 1.6 0.00 1.93 1.88 90 1012.1
20260506233058 13 0 0.0 1.6 0.00 1.93 1.88 90 1011.9
20260506231734 13 0 0.0 3.2 0.00 1.93 1.88 90 1012.7
20260506230112 13 0 0.0 1.6 0.00 1.93 1.88 89 1012.5
20260506224551 13 0 0.0 1.6 0.00 1.93 1.88 89 1012.6
20260506223052 13 0 0.0 1.6 0.00 1.93 1.88 88 1012.3
20260506221605 13 360 0.0 1.6 0.00 1.93 1.88 87 1012.5
20260506220056 13 0 0.0 3.2 0.00 1.93 1.88 86 1012.3
20260506214556 13 360 0.0 3.2 0.00 1.93 1.88 87 1012.0
20260506213051 13 360 0.0 4.8 0.00 1.93 1.88 87 1012.1
20260506211555 13 0 0.0 6.4 0.00 1.93 1.88 87 1012.1
20260506210057 13 360 1.6 4.8 0.00 1.93 1.88 88 1012.0
20260506204558 13 360 0.0 1.6 0.00 1.93 1.88 87 1012.1
20260506203119 13 0 0.0 3.2 0.00 1.93 1.88 86 1012.2
20260506201556 13 0 0.0 4.8 0.00 1.93 1.88 87 1011.8
20260506194554 12 360 0.0 6.4 0.00 1.93 1.88 86 1011.8
20260506193104 12 360 1.6 4.8 0.00 1.93 1.88 88 1011.8
20260506191556 12 360 0.0 4.8 0.00 1.93 1.88 89 1011.8
20260506190058 12 360 0.0 8.0 0.00 1.93 1.88 89 1011.7
20260506184553 12 0 0.0 6.4 0.00 1.93 1.88 90 1011.8
20260506183053 12 360 3.2 8.0 0.00 1.93 1.88 89 1011.6
20260506181556 12 360 3.2 14.5 0.00 1.93 1.88 89 1011.7
20260506180055 12 360 3.2 12.9 0.00 1.93 1.88 90 1011.7
20260506174555 12 360 3.2 9.7 0.00 1.93 1.88 89 1011.6
20260506173059 12 360 1.6 12.9 0.00 1.93 1.88 90 1011.7
20260506171554 12 360 3.2 12.9 0.00 1.93 1.88 91 1011.6
20260506170107 12 360 4.8 17.7 0.00 1.93 1.88 91 1011.3
20260506164624 12 360 6.4 16.1 0.00 1.93 1.88 93 1011.4
20260506163101 12 360 4.8 12.9 0.00 1.93 1.88 94 1011.2
20260506161554 12 360 3.2 9.7 0.00 1.93 1.88 93 1011.2
20260506160113 12 360 3.2 9.7 0.03 1.93 1.88 93 1011.1
20260506154557 12 360 4.8 12.9 0.03 1.93 1.88 92 1010.9
20260506153051 12 360 3.2 14.5 0.03 1.93 1.88 92 1010.5
20260506151556 13 360 4.8 14.5 0.05 1.93 1.88 92 1010.0
20260506144551 15 360 1.6 8.0 0.05 1.91 1.85 95 1009.4
20260506143057 15 360 0.0 8.0 0.05 1.91 1.85 95 1009.4
20260506141551 15 360 0.0 4.8 0.03 1.88 1.83 95 1009.3
20260506140051 15 360 1.6 6.4 0.05 1.88 1.83 95 1008.8
20260506134554 15 0 0.0 4.8 0.08 1.85 1.80 95 1008.6
20260506133108 14 360 0.0 4.8 0.10 1.85 1.80 95 1008.2
20260506131611 14 360 1.6 6.4 0.10 1.85 1.80 96 1008.1
20260506130053 14 360 1.6 4.8 0.13 1.83 1.78 95 1008.1
20260506124552 13 360 0.0 12.9 0.10 1.78 1.73 95 1008.2
20260506123056 13 0 0.0 6.4 0.13 1.75 1.70 95 1007.8
20260506121556 13 360 0.0 4.8 0.23 1.75 1.70 95 1008.0
20260506120104 13 0 0.0 3.2 0.23 1.70 1.65 95 1007.7
20260506114550 13 0 0.0 1.6 0.20 1.68 1.63 95 1007.9
20260506113052 13 0 0.0 1.6 0.20 1.63 1.57 95 1008.1
20260506111555 13 0 0.0 3.2 0.23 1.52 1.47 95 1007.9
20260506110109 13 360 0.0 3.2 0.25 1.47 1.42 95 1007.8
20260506104611 13 0 0.0 3.2 0.33 1.47 1.42 95 1007.5
20260506103050 13 0 0.0 6.4 0.38 1.42 1.37 95 1007.4
20260506101553 13 360 0.0 4.8 0.51 1.30 1.24 95 1007.1
20260506094600 13 0 0.0 1.6 0.46 1.14 1.09 94 1006.8
20260506093053 13 0 0.0 4.8 0.41 1.04 0.99 94 1006.9
20260506091551 13 0 0.0 3.2 0.20 0.79 0.74 94 1007.1
20260506090051 13 0 0.0 3.2 0.30 0.74 0.69 93 1007.4
20260506084624 13 0 0.0 3.2 0.30 0.69 0.64 93 1007.9
20260506083056 13 0 0.0 3.2 0.30 0.64 0.58 92 1007.8
20260506081558 13 0 0.0 3.2 0.28 0.58 0.53 92 1007.6
20260506073052 13 0 0.0 4.8 0.20 0.33 0.28 91 1007.4
20260506071558 13 360 0.0 1.6 0.20 0.30 0.25 91 1007.5
20260506061600 13 360 0.0 3.2 0.00 0.10 0.05 93 1007.6
20260506044554 14 0 0.0 1.6 0.05 0.08 0.03 91 1008.5
20260506043050 14 0 0.0 3.2 0.05 0.08 0.03 90 1008.3
20260506041604 14 0 0.0 1.6 0.08 0.08 0.03 88 1008.9
20260506040053 15 0 0.0 1.6 0.05 0.05 0.00 86 1008.6
20260506034554 15 0 0.0 1.6 0.03 0.03 0.03 84 1008.6
20260506033051 15 360 0.0 3.2 0.03 0.03 0.03 79 1008.8